Other Surface Observations
Issued by NWS Tucson, AZ

Home | Current Version | Previous Version | Text Only | Print | Product List | Glossary On
Versions: 1 2 3 4 5 6 7 8 9 10 11 12 13 14 15 16 17 18 19 20 21 22 23 24 25 26 27 28 29 30 31 32 33 34 35 36 37 38 39 40 41 42 43 44 45 46 47 48 49 50
911
SXUS55 KTWC 261915
OSOTWC

WEATHER ROUNDUP FOR SOUTHEAST ARIZONA
NATIONAL WEATHER SERVICE TUCSON AZ
1215 PM MST THU MAY 26 2016

AZZ504>506-514-262015-
LOCATION       SKY/WX    TMP DP  RH WIND       PRES   REMARKS
TUCSON         SUNNY     75  21  13 VRB6      29.99F
DAVIS-MONTHAN  MOSUNNY   74  21  13 NW10      29.97F
CHILDRENS PARK N/A      N/A N/A  16 W2                PIMA CO DEQ
ALVERNON/22ND  N/A       73 N/A N/A W1                PIMA CO DEQ
CHERRY/GLENN   N/A      N/A N/A N/A N/A               PIMA CO DEQ
TANGERINE      N/A       73 N/A N/A N/A               PIMA CO DEQ
CONTL RANCH    N/A       76  25  15 W0                PIMA CO DEQ
GRANT/1ST      N/A       73  23  15 NW1               PIMA CO DEQ
CRAYCROFT/22ND N/A       72  22  15 N/A               PIMA CO DEQ
GOLFLINKS/KOLB N/A      N/A N/A N/A N/A               PIMA CO DEQ
AJO/12TH       N/A       73  23  15 SW4               PIMA CO DEQ
SAGUARO EAST   N/A       22 -16  16 N/A               PIMA CO DEQ
FAIRGROUNDS    N/A       71 N/A N/A N/A               PIMA CO DEQ
SAGUARO        N/A       76  25  15 SW5G17            *SABINO CYN
SAN CARLOS     N/A       76  29  18 SE7G13            *SAN CARLOS
GREEN VALLEY   N/A       73  19  13 SW5               PIMA CO DEQ
HORSE CAMP CYN N/A       69  25  19 SW8G16            *ARAVAIPA CYN
RINCON MTNS    N/A       56  18  22 S3G11             *NR MANNING CAMP
$$

AZZ509>511-262015-
LOCATION       SKY/WX    TMP DP  RH WIND       PRES   REMARKS
SAFFORD        SUNNY     75  19  12 W10G23    29.94F
STRAY HORSE    N/A       54  14  20 SW9G17            *
TRAIL CABIN    N/A       63  16  16 NW9G17            *N OF GRANVILLE
BLACK HILLS    NOT AVBL
DRY LAKE       N/A       60  24  25 W4G10             *NATANES MTNS
NOON CREEK     N/A       70  20  15 NE8G15            *PINALENO MTNS
COLUMBINE      N/A       45  11  25 S4G12             *PINALENO MTNS
GUTHRIE        N/A       60  15  17 W8G23             *SW OF GUTHRIE
$$

AZZ502-503-513-262015-
LOCATION       SKY/WX    TMP DP  RH WIND       PRES   REMARKS
NOGALES        SUNNY     72  15  11 CALM      30.00F
SELLS          N/A       77  32  19 NE5G11            *
SASABE         N/A       73  17  12 W7G13             *ALTAR VLY
HOPKINS        N/A       60  19  20 W7G15             *SANTA RITA MTNS
CARR CYN       N/A       70  17  13 S5G12             *W OF HEREFORD
$$

AZZ507-508-512-262015-
LOCATION       SKY/WX    TMP DP  RH WIND       PRES   REMARKS
SIERRA VISTA   SUNNY     73  12   9 W16       30.02F
DOUGLAS        SUNNY     74  14  10 SW10G25   29.99F
EMPIRE MTNS    NOT AVBL
MULESHOE RANCH N/A       69  14  12 NW4G20            *PRESERVE
HEADQUARTERS   N/A       67  16  14 W8G22             *CHIRICAHUA MTNS
$$

.............................NOTES.............................
THIS IS AN AUTOMATED COLLECTIVE WITH MINIMAL QUALITY CONTROL.
PIMA CO DEQ SITES HAVE NONSTANDARD WIND SENSOR HEIGHTS.
PIMA CO DEQ SITES DO NOT REPORT WIND GUSTS.
* INDICATES WIND SENSORS LOCATED AT 20 FEET INSTEAD OF 33 FEET.
..............................KEY..............................
SKY/WX - SKY CONDITION/WEATHER
TMP    - TEMPERATURE IN FAHRENHEIT
DP     - DEWPOINT IN FAHRENHEIT
RH     - RELATIVE HUMIDITY IN PERCENT
WIND   - DIRECTION AND SPEED IN MILES PER HOUR (MPH)
VRB    - VARIABLE WIND DIRECTION
PRES   - MEAN SEA LEVEL PRESSURE IN INCHES OF MERCURY
         F - FALLING PRESSURE   R - RISING PRESSURE
         S - STEADY PRESSURE
VSB    - VISIBILITY IN MILES
HX     - HEAT INDEX IN FAHRENHEIT
WCI    - WIND CHILL INDEX IN FAHRENHEIT
N/A    - NOT AVAILABLE
AFB    - AIR FORCE BASE
         DAVIS-MONTHAN IS DAVIS-MONTHAN AIR FORCE BASE
CYN    - CANYON
MTNS   - MOUNTAINS
NCA    - NATIONAL CONSERVATION AREA
NR     - NEAR
VLY    - VALLEY
CONTL  - CONTINENTAL
PIMA CO DEQ - PIMA COUNTY DEPT OF ENVIRONMENTAL QUALITY



USA.gov is the U.S. government's official web portal to all federal, state and local government web resources and services.